DW9246 Weather Reports


time (UTC)temp
C
wind
direction
speed
KPH
gust
KPH
rain 1hr
cm
rain 24hr
cm
rain mn
cm
humidity
%
barometer
mb
20260508010019 10 342 6.4 9.7 0.00 0.00 0.00 80 1013.8
20260508005018 11 339 4.8 8.0 0.00 0.00 0.00 82 1014.0
20260508004019 11 342 6.4 9.7 0.00 0.00 0.00 83 1014.0
20260508003018 11 338 4.8 8.0 0.00 0.00 0.00 84 1014.2
20260508002018 11 345 4.8 6.4 0.00 0.00 0.00 84 1014.0
20260508001017 11 345 4.8 6.4 0.00 0.00 0.00 84 1014.1
20260508000019 12 357 4.8 8.0 0.00 0.00 0.00 83 1014.2
20260507235017 12 41 3.2 6.4 0.00 0.00 0.00 83 1014.3
20260507234018 12 41 3.2 6.4 0.00 0.00 0.00 83 1014.3
20260507233020 13 40 3.2 6.4 0.00 0.00 0.00 82 1014.4
20260507232018 13 40 1.6 6.4 0.00 0.00 0.00 82 1014.4
20260507231017 13 41 3.2 6.4 0.00 0.00 0.00 82 1014.6
20260507225017 13 50 4.8 8.0 0.00 0.00 0.00 82 1014.6
20260507224017 13 51 3.2 6.4 0.00 0.00 0.00 82 1014.8
20260507223018 13 51 3.2 6.4 0.00 0.00 0.00 82 1014.7
20260507222020 13 38 3.2 6.4 0.00 0.00 0.00 82 1014.7
20260507221017 13 36 4.8 8.0 0.00 0.00 0.00 82 1014.7
20260507220020 13 42 4.8 8.0 0.00 0.00 0.00 82 1014.7
20260507215018 13 42 4.8 8.0 0.00 0.00 0.00 83 1014.8
20260507214017 13 28 3.2 6.4 0.00 0.00 0.00 83 1014.8
20260507213017 13 357 3.2 4.8 0.00 0.00 0.00 83 1014.9
20260507212018 13 357 3.2 4.8 0.00 0.00 0.00 82 1014.8
20260507211018 13 357 0.0 3.2 0.00 0.00 0.00 82 1014.8
20260507210019 13 6 3.2 6.4 0.00 0.00 0.00 82 1014.8
20260507205017 13 123 0.0 4.8 0.00 0.00 0.00 81 1014.6
20260507203017 14 123 1.6 4.8 0.00 0.00 0.00 81 1014.4
20260507202017 14 123 1.6 4.8 0.00 0.00 0.00 81 1014.4
20260507200021 14 123 0.0 3.2 0.00 0.00 0.00 81 1014.3
20260507195018 14 0 0.0 0.0 0.00 0.00 0.00 81 1014.2
20260507194017 14 0 0.0 0.0 0.00 0.00 0.00 80 1013.9
20260507193017 14 123 1.6 3.2 0.00 0.00 0.00 80 1013.7
20260507191017 14 123 0.0 1.6 0.00 0.00 0.00 79 1013.3
20260507185018 15 123 1.6 4.8 0.00 0.00 0.00 79 1013.3
20260507183017 15 123 1.6 4.8 0.00 0.00 0.00 78 1013.3
20260507182016 15 160 6.4 11.3 0.00 0.00 0.00 78 1013.2
20260507181017 15 166 8.0 14.5 0.00 0.00 0.00 78 1013.1
20260507180018 15 164 8.0 14.5 0.00 0.00 0.00 77 1013.0
20260507174017 15 157 9.7 17.7 0.00 0.00 0.00 76 1012.9
20260507173017 16 167 9.7 16.1 0.00 0.00 0.00 76 1012.8
20260507172017 16 156 9.7 17.7 0.00 0.00 0.00 76 1012.8
20260507171017 16 155 8.0 17.7 0.00 0.00 0.00 76 1012.6
20260507170018 16 159 8.0 17.7 0.00 0.00 0.00 75 1012.4
20260507165017 16 136 6.4 12.9 0.00 0.00 0.00 75 1012.5
20260507163017 16 144 8.0 16.1 0.00 0.00 0.00 75 1012.5
20260507160019 16 153 8.0 14.5 0.00 0.00 0.00 75 1012.2
20260507154016 16 146 11.3 20.9 0.00 0.00 0.00 75 1012.3
20260507153016 16 162 14.5 24.1 0.00 0.00 0.00 75 1012.5
20260507151019 17 159 9.7 19.3 0.00 0.00 0.00 72 1012.6
20260507145019 16 158 12.9 24.1 0.00 0.00 0.00 73 1012.7
20260507144016 16 153 16.1 27.4 0.00 0.00 0.00 73 1012.8
20260507143016 17 152 12.9 25.7 0.00 0.00 0.00 74 1012.8
20260507142017 17 155 12.9 25.7 0.00 0.00 0.00 73 1012.8
20260507141017 16 146 12.9 22.5 0.00 0.00 0.00 74 1012.9
20260507140018 17 149 12.9 24.1 0.00 0.00 0.00 72 1013.2
20260507135016 17 152 12.9 24.1 0.00 0.00 0.00 70 1013.1
20260507134016 17 165 14.5 25.7 0.00 0.00 0.00 72 1013.3
20260507133016 16 160 16.1 29.0 0.00 0.00 0.00 74 1013.5
20260507132018 16 153 14.5 24.1 0.00 0.00 0.00 73 1013.5
20260507130019 16 155 14.5 24.1 0.00 0.00 0.00 72 1013.7
20260507125019 17 146 12.9 25.7 0.00 0.00 0.00 73 1013.8
20260507124016 16 146 14.5 27.4 0.00 0.00 0.00 72 1013.9
20260507123018 16 158 16.1 29.0 0.00 0.00 0.00 72 1013.9
20260507122016 16 148 16.1 29.0 0.00 0.00 0.00 72 1014.1
20260507121015 16 151 16.1 25.7 0.00 0.00 0.00 72 1014.2
20260507120017 16 152 11.3 20.9 0.00 0.00 0.00 72 1014.3
20260507115016 16 162 16.1 29.0 0.00 0.00 0.00 72 1014.2
20260507112016 16 149 11.3 22.5 0.00 0.00 0.00 71 1014.4
20260507110017 16 154 11.3 20.9 0.00 0.00 0.00 74 1014.6
20260507105016 16 152 12.9 24.1 0.00 0.00 0.00 74 1014.6
20260507104016 16 155 16.1 24.1 0.00 0.00 0.00 74 1014.8
20260507103019 16 158 14.5 24.1 0.00 0.00 0.00 76 1014.7
20260507100021 16 149 9.7 20.9 0.00 0.00 0.00 73 1014.7
20260507094014 16 149 9.7 17.7 0.00 0.00 0.00 73 1014.9
20260507093016 16 136 8.0 19.3 0.00 0.00 0.00 73 1014.8
20260507092016 16 152 8.0 19.3 0.00 0.00 0.00 73 1014.8
20260507091016 16 144 4.8 12.9 0.00 0.00 0.00 72 1014.8
20260507090015 16 81 1.6 6.4 0.00 0.00 0.00 72 1014.8
20260507085016 16 111 4.8 9.7 0.00 0.00 0.00 72 1014.9
20260507083016 16 115 8.0 16.1 0.00 0.00 0.00 72 1014.6
20260507082016 15 100 6.4 16.1 0.00 0.00 0.00 75 1014.5
20260507081016 15 76 6.4 16.1 0.00 0.00 0.00 76 1014.4
20260507080017 15 106 6.4 14.5 0.00 0.00 0.00 77 1014.6
20260507075016 15 79 4.8 12.9 0.00 0.00 0.00 79 1014.7
20260507074015 14 100 8.0 14.5 0.00 0.00 0.00 78 1014.7
20260507073016 15 87 9.7 14.5 0.00 0.00 0.00 77 1014.9
20260507072016 15 97 6.4 14.5 0.00 0.00 0.00 76 1014.9
20260507071019 15 101 6.4 14.5 0.00 0.00 0.00 76 1014.8
20260507070018 15 116 4.8 14.5 0.00 0.00 0.00 76 1014.8
20260507065016 14 104 6.4 12.9 0.00 0.00 0.00 75 1014.8
20260507064016 15 111 6.4 12.9 0.00 0.00 0.00 73 1014.6
20260507063016 15 104 4.8 11.3 0.00 0.00 0.00 73 1014.4
20260507062016 15 72 3.2 9.7 0.00 0.00 0.00 72 1014.4
20260507061017 14 350 0.0 3.2 0.00 0.00 0.00 77 1014.2
20260507060021 13 350 0.0 1.6 0.00 0.00 0.00 79 1014.0
20260507055022 12 350 3.2 4.8 0.00 0.00 0.00 80 1014.0
20260507054017 12 349 3.2 4.8 0.00 0.00 0.00 80 1013.7
20260507053016 11 349 3.2 6.4 0.00 0.00 0.00 80 1013.8
20260507052017 11 349 4.8 8.0 0.00 0.00 0.00 80 1013.6
20260507051015 11 349 4.8 6.4 0.00 0.00 0.00 81 1013.6
20260507050019 11 349 4.8 6.4 0.00 0.00 0.00 81 1013.7
20260507045016 11 349 4.8 6.4 0.00 0.00 0.00 82 1013.5
20260507043017 11 349 4.8 8.0 0.00 0.00 0.00 83 1013.6
20260507041016 11 349 6.4 8.0 0.00 0.00 0.00 83 1013.7
20260507040023 11 349 4.8 6.4 0.00 0.00 0.00 84 1013.7
20260507034017 11 350 6.4 8.0 0.00 0.00 0.00 83 1013.6
20260507033016 11 350 4.8 8.0 0.00 0.00 0.00 83 1013.6
20260507031016 11 350 4.8 6.4 0.00 0.00 0.00 83 1013.5
20260507024017 11 349 4.8 8.0 0.00 0.00 0.00 82 1013.6
20260507023017 11 350 4.8 8.0 0.00 0.00 0.00 83 1013.6
20260507022016 11 349 4.8 8.0 0.00 0.00 0.00 83 1013.5
20260507021018 11 350 3.2 6.4 0.00 0.00 0.00 83 1013.5
20260507020018 11 349 4.8 8.0 0.00 0.00 0.00 83 1013.4
20260507015016 11 350 6.4 8.0 0.00 0.00 0.00 83 1013.4
20260507014016 11 349 4.8 6.4 0.00 0.00 0.00 83 1013.4
20260507013015 11 349 4.8 6.4 0.00 0.00 0.00 82 1013.4
20260507012019 11 349 4.8 6.4 0.00 0.00 0.00 83 1013.5
20260507011016 12 349 4.8 6.4 0.00 0.00 0.00 83 1013.4